Location: Cardiff
(53.7833°N, 113.6000°W)
Time: 15:57:06
(UTC+00:00)

RS-15 - Pass Details

Date: 09 December 2023
Orbit: 1893 x 2151 km, 64.8° (Epoch: 27 February)

Event Time Altitude Azimuth Distance (km) Brightness Sun altitude
Rises 06:17:38 0° 258° (WSW) 5,632 10.6 -56.4°
Reaches altitude 10° 06:21:16 10° 263° (W) 4,607 10.1 -56.7°
Enters shadow 06:24:12 20° 269° (W) 3,819 9.6 -56.9°
Exits shadow 06:45:09 - 59° (ENE) 4,667 10.1 -58.0°
Sets 06:47:39 0° 63° (ENE) 5,380 10.4 -58.2°
